<?xml version="1.0"?>
<gpx xmlns="http://www.topografix.com/GPX/1/1" xmlns:xsi="http://www.w3.org/2001/XMLSchema-instance" version="1.1" creator="GPX RubyGem 1.0.0 -- http://dougfales.github.io/gpx/" xsi:schemaLocation="http://www.topografix.com/GPX/1/1 http://www.topografix.com/GPX/1/1/gpx.xsd">
  <metadata>
    <name/>
    <time>2026-05-09T21:41:41+00:00</time>
    <bound minlat="90.0" minlon="180.0" maxlat="-90.0" maxlon="-180.0"/>
  </metadata>
  <trk>
    <name/>
    <trkseg>
      <trkpt lat="49.401841" lon="8.168402">
        <time>1970-01-01T00:00:00+00:00</time>
        <ele>182.0</ele>
      </trkpt>
      <trkpt lat="49.401814" lon="8.168256">
        <time>1970-01-01T00:00:00+00:00</time>
        <ele>186.0</ele>
      </trkpt>
      <trkpt lat="49.401751" lon="8.167947">
        <time>1970-01-01T00:00:00+00:00</time>
        <ele>193.0</ele>
      </trkpt>
      <trkpt lat="49.401786" lon="8.16762">
        <time>1970-01-01T00:00:00+00:00</time>
        <ele>196.0</ele>
      </trkpt>
      <trkpt lat="49.401927" lon="8.16703">
        <time>1970-01-01T00:00:00+00:00</time>
        <ele>200.0</ele>
      </trkpt>
      <trkpt lat="49.402262" lon="8.16631">
        <time>1970-01-01T00:00:00+00:00</time>
        <ele>200.0</ele>
      </trkpt>
      <trkpt lat="49.402659" lon="8.165776">
        <time>1970-01-01T00:00:00+00:00</time>
        <ele>206.0</ele>
      </trkpt>
      <trkpt lat="49.402845" lon="8.165383">
        <time>1970-01-01T00:00:00+00:00</time>
        <ele>214.0</ele>
      </trkpt>
      <trkpt lat="49.402975" lon="8.164904">
        <time>1970-01-01T00:00:00+00:00</time>
        <ele>221.0</ele>
      </trkpt>
      <trkpt lat="49.403085" lon="8.164147">
        <time>1970-01-01T00:00:00+00:00</time>
        <ele>226.0</ele>
      </trkpt>
      <trkpt lat="49.403185" lon="8.163783">
        <time>1970-01-01T00:00:00+00:00</time>
        <ele>230.0</ele>
      </trkpt>
      <trkpt lat="49.403349" lon="8.163338">
        <time>1970-01-01T00:00:00+00:00</time>
        <ele>229.0</ele>
      </trkpt>
      <trkpt lat="49.403585" lon="8.162808">
        <time>1970-01-01T00:00:00+00:00</time>
        <ele>230.0</ele>
      </trkpt>
      <trkpt lat="49.403964" lon="8.161521">
        <time>1970-01-01T00:00:00+00:00</time>
        <ele>235.0</ele>
      </trkpt>
      <trkpt lat="49.404072" lon="8.161098">
        <time>1970-01-01T00:00:00+00:00</time>
        <ele>236.0</ele>
      </trkpt>
      <trkpt lat="49.404121" lon="8.160413">
        <time>1970-01-01T00:00:00+00:00</time>
        <ele>235.0</ele>
      </trkpt>
      <trkpt lat="49.404046" lon="8.159418">
        <time>1970-01-01T00:00:00+00:00</time>
        <ele>241.0</ele>
      </trkpt>
      <trkpt lat="49.404083" lon="8.158786">
        <time>1970-01-01T00:00:00+00:00</time>
        <ele>238.0</ele>
      </trkpt>
      <trkpt lat="49.404154" lon="8.157819">
        <time>1970-01-01T00:00:00+00:00</time>
        <ele>236.0</ele>
      </trkpt>
      <trkpt lat="49.404493" lon="8.156932">
        <time>1970-01-01T00:00:00+00:00</time>
        <ele>249.0</ele>
      </trkpt>
      <trkpt lat="49.404867" lon="8.156106">
        <time>1970-01-01T00:00:00+00:00</time>
        <ele>254.0</ele>
      </trkpt>
      <trkpt lat="49.40536" lon="8.155125">
        <time>1970-01-01T00:00:00+00:00</time>
        <ele>259.0</ele>
      </trkpt>
      <trkpt lat="49.405762" lon="8.154368">
        <time>1970-01-01T00:00:00+00:00</time>
        <ele>262.0</ele>
      </trkpt>
      <trkpt lat="49.406076" lon="8.153634">
        <time>1970-01-01T00:00:00+00:00</time>
        <ele>273.0</ele>
      </trkpt>
      <trkpt lat="49.406233" lon="8.152809">
        <time>1970-01-01T00:00:00+00:00</time>
        <ele>275.0</ele>
      </trkpt>
      <trkpt lat="49.406401" lon="8.151526">
        <time>1970-01-01T00:00:00+00:00</time>
        <ele>281.0</ele>
      </trkpt>
      <trkpt lat="49.406572" lon="8.150452">
        <time>1970-01-01T00:00:00+00:00</time>
        <ele>288.0</ele>
      </trkpt>
      <trkpt lat="49.406623" lon="8.150134">
        <time>1970-01-01T00:00:00+00:00</time>
        <ele>289.0</ele>
      </trkpt>
      <trkpt lat="49.406801" lon="8.14951">
        <time>1970-01-01T00:00:00+00:00</time>
        <ele>290.0</ele>
      </trkpt>
      <trkpt lat="49.406905" lon="8.148861">
        <time>1970-01-01T00:00:00+00:00</time>
        <ele>292.0</ele>
      </trkpt>
      <trkpt lat="49.407046" lon="8.148304">
        <time>1970-01-01T00:00:00+00:00</time>
        <ele>294.0</ele>
      </trkpt>
      <trkpt lat="49.407896" lon="8.146399">
        <time>1970-01-01T00:00:00+00:00</time>
        <ele>303.0</ele>
      </trkpt>
      <trkpt lat="49.4083" lon="8.144975">
        <time>1970-01-01T00:00:00+00:00</time>
        <ele>306.0</ele>
      </trkpt>
      <trkpt lat="49.408407" lon="8.144273">
        <time>1970-01-01T00:00:00+00:00</time>
        <ele>312.0</ele>
      </trkpt>
      <trkpt lat="49.408423" lon="8.143507">
        <time>1970-01-01T00:00:00+00:00</time>
        <ele>320.0</ele>
      </trkpt>
      <trkpt lat="49.408729" lon="8.141242">
        <time>1970-01-01T00:00:00+00:00</time>
        <ele>324.0</ele>
      </trkpt>
      <trkpt lat="49.408807" lon="8.140983">
        <time>1970-01-01T00:00:00+00:00</time>
        <ele>326.0</ele>
      </trkpt>
      <trkpt lat="49.408863" lon="8.140897">
        <time>1970-01-01T00:00:00+00:00</time>
        <ele>327.0</ele>
      </trkpt>
      <trkpt lat="49.408845" lon="8.14066">
        <time>1970-01-01T00:00:00+00:00</time>
        <ele>328.0</ele>
      </trkpt>
      <trkpt lat="49.408947" lon="8.140474">
        <time>1970-01-01T00:00:00+00:00</time>
        <ele>328.0</ele>
      </trkpt>
      <trkpt lat="49.408864" lon="8.139529">
        <time>1970-01-01T00:00:00+00:00</time>
        <ele>334.0</ele>
      </trkpt>
      <trkpt lat="49.40871" lon="8.138689">
        <time>1970-01-01T00:00:00+00:00</time>
        <ele>338.0</ele>
      </trkpt>
      <trkpt lat="49.408725" lon="8.138552">
        <time>1970-01-01T00:00:00+00:00</time>
        <ele>338.0</ele>
      </trkpt>
      <trkpt lat="49.408699" lon="8.138403">
        <time>1970-01-01T00:00:00+00:00</time>
        <ele>337.0</ele>
      </trkpt>
      <trkpt lat="49.408699" lon="8.138403">
        <time>1970-01-01T00:00:00+00:00</time>
        <ele>337.0</ele>
      </trkpt>
      <trkpt lat="49.408725" lon="8.138552">
        <time>1970-01-01T00:00:00+00:00</time>
        <ele>338.0</ele>
      </trkpt>
      <trkpt lat="49.40871" lon="8.138689">
        <time>1970-01-01T00:00:00+00:00</time>
        <ele>338.0</ele>
      </trkpt>
      <trkpt lat="49.408864" lon="8.139529">
        <time>1970-01-01T00:00:00+00:00</time>
        <ele>334.0</ele>
      </trkpt>
      <trkpt lat="49.408947" lon="8.140474">
        <time>1970-01-01T00:00:00+00:00</time>
        <ele>328.0</ele>
      </trkpt>
      <trkpt lat="49.408845" lon="8.14066">
        <time>1970-01-01T00:00:00+00:00</time>
        <ele>328.0</ele>
      </trkpt>
      <trkpt lat="49.408863" lon="8.140897">
        <time>1970-01-01T00:00:00+00:00</time>
        <ele>327.0</ele>
      </trkpt>
      <trkpt lat="49.408807" lon="8.140983">
        <time>1970-01-01T00:00:00+00:00</time>
        <ele>326.0</ele>
      </trkpt>
      <trkpt lat="49.408729" lon="8.141242">
        <time>1970-01-01T00:00:00+00:00</time>
        <ele>324.0</ele>
      </trkpt>
      <trkpt lat="49.408423" lon="8.143507">
        <time>1970-01-01T00:00:00+00:00</time>
        <ele>320.0</ele>
      </trkpt>
      <trkpt lat="49.408407" lon="8.144273">
        <time>1970-01-01T00:00:00+00:00</time>
        <ele>312.0</ele>
      </trkpt>
      <trkpt lat="49.4083" lon="8.144975">
        <time>1970-01-01T00:00:00+00:00</time>
        <ele>306.0</ele>
      </trkpt>
      <trkpt lat="49.407896" lon="8.146399">
        <time>1970-01-01T00:00:00+00:00</time>
        <ele>303.0</ele>
      </trkpt>
      <trkpt lat="49.407046" lon="8.148304">
        <time>1970-01-01T00:00:00+00:00</time>
        <ele>294.0</ele>
      </trkpt>
      <trkpt lat="49.406905" lon="8.148861">
        <time>1970-01-01T00:00:00+00:00</time>
        <ele>292.0</ele>
      </trkpt>
      <trkpt lat="49.406801" lon="8.14951">
        <time>1970-01-01T00:00:00+00:00</time>
        <ele>290.0</ele>
      </trkpt>
      <trkpt lat="49.406623" lon="8.150134">
        <time>1970-01-01T00:00:00+00:00</time>
        <ele>289.0</ele>
      </trkpt>
      <trkpt lat="49.406572" lon="8.150452">
        <time>1970-01-01T00:00:00+00:00</time>
        <ele>288.0</ele>
      </trkpt>
      <trkpt lat="49.406621" lon="8.150322">
        <time>1970-01-01T00:00:00+00:00</time>
        <ele>289.0</ele>
      </trkpt>
      <trkpt lat="49.406551" lon="8.151255">
        <time>1970-01-01T00:00:00+00:00</time>
        <ele>284.0</ele>
      </trkpt>
      <trkpt lat="49.406617" lon="8.151834">
        <time>1970-01-01T00:00:00+00:00</time>
        <ele>285.0</ele>
      </trkpt>
      <trkpt lat="49.40682" lon="8.153019">
        <time>1970-01-01T00:00:00+00:00</time>
        <ele>291.0</ele>
      </trkpt>
      <trkpt lat="49.406836" lon="8.154174">
        <time>1970-01-01T00:00:00+00:00</time>
        <ele>299.0</ele>
      </trkpt>
      <trkpt lat="49.406686" lon="8.154643">
        <time>1970-01-01T00:00:00+00:00</time>
        <ele>297.0</ele>
      </trkpt>
      <trkpt lat="49.406619" lon="8.155375">
        <time>1970-01-01T00:00:00+00:00</time>
        <ele>302.0</ele>
      </trkpt>
      <trkpt lat="49.406445" lon="8.156211">
        <time>1970-01-01T00:00:00+00:00</time>
        <ele>308.0</ele>
      </trkpt>
      <trkpt lat="49.406374" lon="8.15679">
        <time>1970-01-01T00:00:00+00:00</time>
        <ele>310.0</ele>
      </trkpt>
      <trkpt lat="49.405833" lon="8.157266">
        <time>1970-01-01T00:00:00+00:00</time>
        <ele>300.0</ele>
      </trkpt>
      <trkpt lat="49.405487" lon="8.157815">
        <time>1970-01-01T00:00:00+00:00</time>
        <ele>292.0</ele>
      </trkpt>
      <trkpt lat="49.405275" lon="8.158562">
        <time>1970-01-01T00:00:00+00:00</time>
        <ele>280.0</ele>
      </trkpt>
      <trkpt lat="49.405211" lon="8.159106">
        <time>1970-01-01T00:00:00+00:00</time>
        <ele>272.0</ele>
      </trkpt>
      <trkpt lat="49.405275" lon="8.15935">
        <time>1970-01-01T00:00:00+00:00</time>
        <ele>272.0</ele>
      </trkpt>
      <trkpt lat="49.405788" lon="8.159858">
        <time>1970-01-01T00:00:00+00:00</time>
        <ele>276.0</ele>
      </trkpt>
      <trkpt lat="49.406046" lon="8.160333">
        <time>1970-01-01T00:00:00+00:00</time>
        <ele>275.0</ele>
      </trkpt>
      <trkpt lat="49.406087" lon="8.160714">
        <time>1970-01-01T00:00:00+00:00</time>
        <ele>275.0</ele>
      </trkpt>
      <trkpt lat="49.405623" lon="8.16096">
        <time>1970-01-01T00:00:00+00:00</time>
        <ele>272.0</ele>
      </trkpt>
      <trkpt lat="49.405503" lon="8.161013">
        <time>1970-01-01T00:00:00+00:00</time>
        <ele>271.0</ele>
      </trkpt>
      <trkpt lat="49.404923" lon="8.161002">
        <time>1970-01-01T00:00:00+00:00</time>
        <ele>257.0</ele>
      </trkpt>
      <trkpt lat="49.404773" lon="8.161133">
        <time>1970-01-01T00:00:00+00:00</time>
        <ele>253.0</ele>
      </trkpt>
      <trkpt lat="49.404506" lon="8.161765">
        <time>1970-01-01T00:00:00+00:00</time>
        <ele>250.0</ele>
      </trkpt>
      <trkpt lat="49.404014" lon="8.162664">
        <time>1970-01-01T00:00:00+00:00</time>
        <ele>240.0</ele>
      </trkpt>
      <trkpt lat="49.403779" lon="8.16325">
        <time>1970-01-01T00:00:00+00:00</time>
        <ele>234.0</ele>
      </trkpt>
      <trkpt lat="49.403179" lon="8.165265">
        <time>1970-01-01T00:00:00+00:00</time>
        <ele>220.0</ele>
      </trkpt>
      <trkpt lat="49.402664" lon="8.166462">
        <time>1970-01-01T00:00:00+00:00</time>
        <ele>210.0</ele>
      </trkpt>
      <trkpt lat="49.402014" lon="8.167671">
        <time>1970-01-01T00:00:00+00:00</time>
        <ele>189.0</ele>
      </trkpt>
      <trkpt lat="49.401786" lon="8.16762">
        <time>1970-01-01T00:00:00+00:00</time>
        <ele>196.0</ele>
      </trkpt>
      <trkpt lat="49.401751" lon="8.167947">
        <time>1970-01-01T00:00:00+00:00</time>
        <ele>193.0</ele>
      </trkpt>
      <trkpt lat="49.401814" lon="8.168256">
        <time>1970-01-01T00:00:00+00:00</time>
        <ele>186.0</ele>
      </trkpt>
      <trkpt lat="49.401841" lon="8.168402">
        <time>1970-01-01T00:00:00+00:00</time>
        <ele>182.0</ele>
      </trkpt>
    </trkseg>
  </trk>
</gpx>
